Voltar ao catálogo

FENGYUN 1C DEB

AtivoPO
NORAD 30239·DEBRIS·🇨🇳 China

Lançado May 10, 1999 de Taiyuan Satellite Launch Center

Loading…

Próximas Passagens (próximas 24 horas)

TLE

AtualizadoSource: Space-Track

Época: Sep 14, 2026, 21:14 UTC

1 30239U 99025WY  26257.88498484  .00016423  00000-0  37814-1 0  9997
2 30239  99.5219 320.4427 1392409 264.6911  79.4229 11.42625994576850

Acompanhe FENGYUN 1C DEB em tempo real com AllMySat

Download on the App Store